Simultaneous Nadir Overpasses (SNOs) Predictions

Prediction of SNOs between METOP-B and TERRA Satellite Orbit:

Table of predicted SNOs for the next 14.0 days since TLE Epoch: 12/1/2018
Index Date (METOP-B) Time (METOP-B) Lat,Lon (METOP-B) SZA (METOP-B ) Date (TERRA) Time (TERRA) Lat,Lon (TERRA) SZA (TERRA ) Distance(km) Time Diff (sec)
1 12/01/2018 20:35:13 -81.28, 97.98 73.95 12/01/2018 20:35:20 -81.27, 97.99 73.95 0.74 7
2 12/01/2018 21:25:53 81.28, -94.22 106.11 12/01/2018 21:24:46 81.27, -94.28 106.07 1.21 67
3 12/04/2018 15:18:58 81.27, -3.06 106.40 12/04/2018 15:20:05 81.28, -2.94 106.45 2.17 67
4 12/04/2018 16:09:38 -81.28, 164.48 73.58 12/04/2018 16:09:32 -81.28, 164.62 73.56 2.28 6
5 12/07/2018 10:53:22 81.28, 63.40 106.71 12/07/2018 10:54:17 81.28, 63.40 106.74 0.30 55
6 12/07/2018 11:44:02 -81.28,-129.03 73.26 12/07/2018 11:43:44 -81.27,-129.03 73.27 0.46 18
7 12/10/2018 06:27:47 81.28, 129.85 106.97 12/10/2018 06:28:30 81.28, 129.85 106.99 0.29 43
8 12/10/2018 07:18:27 -81.28, -62.55 73.00 12/10/2018 07:17:57 -81.28, -62.56 73.02 0.44 30
9 12/13/2018 02:02:12 81.28,-163.72 107.16 12/13/2018 02:02:43 81.28,-163.58 107.19 2.46 31




NCC Satellite Simultaneous Nadir Overpasses (SNOs) Prediction Service
